INTELSAT 34 (IS-34) (40874 NORAD) Tracking and Keplerian Element Data

This shows tracking and keplerian element data for the satellite.

Feedback or suggestion? Click here.




ElementValue
Catalog40874
NameINTELSAT 34 (IS-34)
Epoch Orbit3462
Epoch Day34.45830941
Epoch Year2025
RAAN87.7351
Inclination0.014
Eccentricity7.28E-05
Argument of Perigee131.526
Mean Anonmoly24.0966
Mean Motion1.00270427
Decay Rate-2.81E-06
L11 40874U 15039A 25034.45830941 -.00000281 00000+0 00000+0 0 9999
L22 40874 0.0140 87.7351 0000728 131.5260 24.0966 1.00270427 34621



Live tracking and technical data element details for INTELSAT 34 (IS-34) (NORAD 40874). INTELSAT 34 (IS-34) can be tracked NOW for your location showing map with azimuth and elevation plus other details from your city location.







IsCatalogInMostPopularTable: catalog: 40874, numindb: 751
Update: records affected: 1



GetName: 40874 INTELSAT 34 (IS-34)

Hit Count: updated at: Sat, 17 May 2025 06:57:44 GMT